PROBA-1 1 26958U 01049B 26107.26435786 .00001299 00000+0 88019-4 0 9991 2 26958 97.9623 113.6747 0054403 330.7139 29.1041 15.07262924334442 CUTE-1 (CO-55) 1 27844U 03031E 26106.78011330 .00000189 00000+0 10099-3 0 9999 2 27844 98.6764 116.1074 0009705 11.4859 348.6539 14.24296809182932 CUBESAT XI-IV (CO-57) 1 27848U 03031J 26106.52703389 .00000164 00000+0 91279-4 0 9990 2 27848 98.6796 115.6194 0010020 29.7735 330.4012 14.23587215182607 APRIZESAT 4 1 35684U 09041D 26107.16194913 .00000479 00000+0 63918-4 0 9990 2 35684 98.1431 181.2659 0043930 157.9640 202.3474 14.83784865902318 APRIZESAT 3 1 35686U 09041F 26106.36855817 .00001376 00000+0 12418-3 0 9995 2 35686 98.1980 256.6684 0060402 271.1768 88.2532 14.96034976907133 PROBA-2 1 36037U 09059B 26107.09846769 .00000111 00000+0 36481-4 0 9995 2 36037 98.2451 291.2983 0014481 108.1845 252.0930 14.54835948872648 APRIZESAT 5 1 37792U 11044E 26107.26869318 .00000522 00000+0 73519-4 0 9994 2 37792 98.2429 38.5992 0051834 197.4977 162.4450 14.80956344789779 APRIZESAT 6 1 37793U 11044F 26107.25596448 .00000454 00000+0 71839-4 0 9992 2 37793 98.2394 16.5054 0041834 281.4095 233.9040 14.76832577788156 PROBA-V 1 39159U 13021A 26106.90084260 .00000029 00000+0 30627-4 0 9990 2 39159 98.3554 88.5463 0003412 327.2197 32.8770 14.23583688672390 APRIZESAT 7 1 39416U 13066A 26107.30481313 .00000901 00000+0 94784-4 0 9993 2 39416 97.7657 61.4255 0037227 54.6312 305.8376 14.91410592672150 APRIZESAT 8 1 39425U 13066K 26107.26733609 .00000633 00000+0 74481-4 0 9990 2 39425 97.8174 55.6103 0047242 125.2933 235.2716 14.87520161670616 BUGSAT-1 (TITA) 1 40014U 14033E 26107.28265490 .00002276 00000+0 12481-3 0 9997 2 40014 98.0412 196.3083 0028952 31.5813 328.7148 15.14976339646616 SAUDISAT 4 1 40016U 14033G 26107.31765694 .00000415 00000+0 61633-4 0 9991 2 40016 97.7492 255.5892 0043407 271.4992 88.1247 14.79454242637074 APRIZESAT 9 1 40018U 14033J 26106.37308842 .00000312 00000+0 53351-4 0 9990 2 40018 97.8958 241.1173 0067048 40.0434 320.5690 14.74145358634459 APRIZESAT 10 1 40019U 14033K 26107.30931764 .00000391 00000+0 69008-4 0 9993 2 40019 97.9550 235.6617 0080200 107.9621 253.0349 14.70823991633302 TECHDEMOSAT-1 (TDS-1) 1 40076U 14037H 26106.71102188 .00005615 00000+0 32832-3 0 9992 2 40076 98.3802 92.8886 0008078 111.3319 248.8772 15.12319697638933 TECHNOSAT 1 42829U 17042E 26107.27098489 .00001967 00000+0 14407-3 0 9993 2 42829 97.4206 267.2873 0016714 304.3346 55.6298 15.04577062477541 FLYING LAPTOP 1 42831U 17042G 26107.31885544 .00001611 00000+0 13109-3 0 9991 2 42831 97.4407 265.3119 0018886 333.4463 26.5792 15.00764503477320 HAWK-A 1 43765U 18099H 26107.09824376 .00004899 00000+0 20245-3 0 9992 2 43765 97.3974 160.1484 0036728 138.8250 221.5769 15.23838178403794 HAWK-B 1 43794U 18099AN 26107.11369974 .00004146 00000+0 18152-3 0 9994 2 43794 97.4025 159.7039 0033417 155.4400 204.8437 15.22081895403744 HAWK-C 1 43799U 18099AT 26107.14432424 .00005427 00000+0 20149-3 0 9995 2 43799 97.3953 160.8134 0042626 140.0508 220.3881 15.27130272404597 SALSAT 1 46495U 20068K 26107.23055943 .00004835 00000+0 17499-3 0 9993 2 46495 97.8863 106.6289 0010887 147.6902 212.5006 15.28888426306047 HAWK-2C 1 47502U 21006CT 26107.10690816 .00004317 00000+0 13389-3 0 9995 2 47502 97.2341 152.6496 0008532 68.1210 292.0939 15.33898184290134 HAWK-2A 1 47505U 21006CW 26107.10993599 .00004300 00000+0 13335-3 0 9995 2 47505 97.2383 153.2942 0008172 71.4764 288.7366 15.33910828290133 HAWK-2B 1 47508U 21006CZ 26107.10701538 .00005037 00000+0 15570-3 0 9999 2 47508 97.2257 151.7244 0008658 69.1218 291.0952 15.33926156290130 HAWK-3B 1 48931U 21059BE 26106.95852844 .00027145 00000+0 28074-3 0 9994 2 48931 97.6703 298.1033 0005751 183.5219 176.6000 15.64701979268265 HAWK-3C 1 48948U 21059BX 26107.08611801 .00029737 00000+0 30725-3 0 9998 2 48948 97.6835 303.8180 0006022 183.1602 176.9620 15.64706528268288 HAWK-3A 1 48957U 21059CG 26107.08601807 .00028625 00000+0 29586-3 0 9991 2 48957 97.6778 301.0726 0005812 182.6583 177.4646 15.64706613268287 HAWK-5C 1 52754U 22057Y 26106.85290413 .00012227 00000+0 22630-3 0 9995 2 52754 97.6514 262.7108 0003711 289.7778 70.3072 15.49178110216840 HAWK-5B 1 52756U 22057AA 26107.24030530 .00011422 00000+0 21155-3 0 9990 2 52756 97.6518 261.4641 0003642 280.2574 79.8266 15.49175835216904 HAWK-5A 1 52757U 22057AB 26106.85251511 .00012317 00000+0 22797-3 0 9998 2 52757 97.6516 261.8868 0004030 285.7972 74.2834 15.49173594216845 HAWK-6B 1 55324U 23011A 26107.05472971 .00003164 00000+0 14246-3 0 9990 2 55324 40.4997 348.4853 0004004 308.0722 51.9726 15.22374508178529 HAWK-6C 1 55326U 23011C 26107.05411678 .00003301 00000+0 14825-3 0 9995 2 55326 40.4988 345.3340 0004429 296.6609 63.3746 15.22375787178535 HAWK-6A 1 55327U 23011D 26107.05414485 .00003253 00000+0 14623-3 0 9997 2 55327 40.4998 346.9529 0004151 296.4545 63.5838 15.22375340178531 HAWK-7A 1 56191U 23054P 26107.16839166 .00003037 00000+0 11835-3 0 9995 2 56191 97.2780 356.0605 0001191 226.3588 133.7553 15.26713972167710 HAWK-7B 1 56193U 23054R 26107.16832710 .00003050 00000+0 11881-3 0 9991 2 56193 97.2807 354.3020 0000338 239.7941 120.3265 15.26714120167715 HAWK-7C 1 56200U 23054Y 26107.16822824 .00003440 00000+0 13366-3 0 9998 2 56200 97.2783 355.0901 0000813 204.3781 155.7420 15.26715242167712